| time (UTC) | temp F | wind direction | speed MPH | gust MPH | rain 1hr in | rain 24hr in | rain mn in | humidity % | barometer mb |
| 20260506090713 | 38 | 180 | 0.0 | 0.0 | 0.00 | 0.09 | 0.00 | 96 | 1019.6 |
| 20260506085714 | 38 | 180 | 0.0 | 0.0 | 0.00 | 0.09 | 0.00 | 96 | 1019.6 |
| 20260506084714 | 38 | 180 | 0.0 | 0.0 | 0.00 | 0.09 | 0.00 | 96 | 1019.6 |
| 20260506082813 | 38 | 180 | 0.0 | 0.0 | 0.00 | 0.09 | 0.00 | 95 | 1019.6 |
| 20260506081813 | 37 | 135 | 0.0 | 0.0 | 0.00 | 0.09 | 0.00 | 96 | 1019.8 |
| 20260506080814 | 37 | 135 | 0.0 | 0.0 | 0.00 | 0.09 | 0.00 | 97 | 1019.5 |
| 20260506073014 | 36 | 135 | 0.0 | 0.0 | 0.00 | 0.09 | 0.00 | 96 | 1019.3 |
| 20260506072915 | 36 | 135 | 0.0 | 0.0 | 0.00 | 0.09 | 0.00 | 96 | 1019.4 |
| 20260506071914 | 36 | 135 | 0.0 | 0.0 | 0.00 | 0.09 | 0.00 | 97 | 1019.2 |
| 20260506071812 | 36 | 135 | 0.0 | 0.0 | 0.00 | 0.09 | 0.00 | 97 | 1019.2 |
| 20260506070814 | 35 | 135 | 0.0 | 0.0 | 0.00 | 0.09 | 0.00 | 96 | 1019.0 |
| 20260506062023 | 35 | 135 | 0.0 | 0.0 | 0.00 | 0.09 | 0.09 | 96 | 1018.5 |
| 20260506061024 | 35 | 135 | 0.0 | 0.0 | 0.00 | 0.09 | 0.09 | 96 | 1018.3 |
| 20260506060124 | 36 | 135 | 0.0 | 0.0 | 0.00 | 0.09 | 0.09 | 96 | 1018.3 |
| 20260506051126 | 37 | 135 | 0.0 | 0.0 | 0.00 | 0.09 | 0.09 | 94 | 1017.9 |
| 20260506050124 | 38 | 135 | 0.0 | 0.0 | 0.00 | 0.09 | 0.09 | 94 | 1017.8 |
| 20260506044124 | 39 | 135 | 0.0 | 0.0 | 0.00 | 0.09 | 0.09 | 94 | 1017.9 |
| 20260506044025 | 39 | 135 | 0.0 | 0.0 | 0.00 | 0.09 | 0.09 | 94 | 1017.7 |
| 20260506043123 | 39 | 135 | 0.0 | 0.0 | 0.00 | 0.09 | 0.09 | 94 | 1017.8 |
| 20260506042124 | 39 | 135 | 0.0 | 0.0 | 0.00 | 0.09 | 0.09 | 93 | 1017.8 |
| 20260506041126 | 40 | 135 | 0.0 | 0.0 | 0.00 | 0.09 | 0.09 | 93 | 1017.6 |
| 20260506041025 | 40 | 135 | 0.0 | 0.0 | 0.00 | 0.09 | 0.09 | 93 | 1017.6 |
| 20260506040028 | 41 | 135 | 0.0 | 0.0 | 0.00 | 0.09 | 0.09 | 93 | 1017.6 |
| 20260506035923 | 41 | 135 | 0.0 | 0.0 | 0.00 | 0.09 | 0.09 | 92 | 1017.6 |
| 20260506034925 | 41 | 135 | 0.0 | 0.0 | 0.00 | 0.09 | 0.09 | 92 | 1017.6 |
| 20260506032925 | 41 | 135 | 0.0 | 0.0 | 0.00 | 0.09 | 0.09 | 92 | 1017.4 |
| 20260506031824 | 42 | 135 | 0.0 | 0.0 | 0.00 | 0.09 | 0.09 | 91 | 1017.2 |
| 20260506025823 | 42 | 135 | 0.0 | 0.0 | 0.00 | 0.09 | 0.09 | 92 | 1017.1 |
| 20260506024825 | 42 | 135 | 0.0 | 0.0 | 0.00 | 0.09 | 0.09 | 92 | 1017.0 |
| 20260506023824 | 42 | 90 | 0.0 | 0.0 | 0.00 | 0.09 | 0.09 | 91 | 1017.0 |
| 20260506023723 | 42 | 90 | 0.0 | 0.0 | 0.00 | 0.09 | 0.09 | 92 | 1017.0 |
| 20260506021726 | 42 | 315 | 0.0 | 0.0 | 0.00 | 0.09 | 0.09 | 92 | 1016.7 |
| 20260506020723 | 42 | 22 | 0.0 | 0.0 | 0.00 | 0.09 | 0.09 | 92 | 1016.5 |
| 20260506020625 | 42 | 353 | 0.0 | 0.0 | 0.00 | 0.09 | 0.09 | 92 | 1016.5 |
| 20260506015626 | 42 | 315 | 0.0 | 0.0 | 0.00 | 0.09 | 0.09 | 92 | 1016.5 |
| 20260506014622 | 42 | 329 | 1.0 | 2.0 | 0.00 | 0.09 | 0.09 | 92 | 1016.4 |
| 20260506011624 | 42 | 22 | 0.0 | 0.0 | 0.00 | 0.09 | 0.09 | 92 | 1016.3 |
| 20260506011526 | 42 | 327 | 1.0 | 3.0 | 0.00 | 0.09 | 0.09 | 93 | 1016.5 |
| 20260506005525 | 42 | 360 | 0.0 | 2.0 | 0.00 | 0.09 | 0.09 | 92 | 1016.2 |
| 20260506005424 | 42 | 19 | 0.0 | 0.0 | 0.00 | 0.09 | 0.09 | 92 | 1016.4 |
| 20260506005325 | 42 | 14 | 0.0 | 2.0 | 0.00 | 0.09 | 0.09 | 92 | 1016.3 |
| 20260506004424 | 42 | 304 | 0.0 | 2.0 | 0.00 | 0.09 | 0.09 | 91 | 1016.2 |
| 20260506003425 | 43 | 157 | 0.0 | 0.0 | 0.00 | 0.09 | 0.09 | 91 | 1016.3 |
| 20260506002522 | 43 | 157 | 0.0 | 3.0 | 0.00 | 0.09 | 0.09 | 91 | 1016.3 |
| 20260506001524 | 43 | 27 | 0.0 | 3.0 | 0.00 | 0.09 | 0.09 | 89 | 1016.2 |
| 20260505235523 | 44 | 90 | 0.0 | 0.0 | 0.00 | 0.09 | 0.09 | 90 | 1016.2 |
| 20260505234524 | 44 | 11 | 0.0 | 2.0 | 0.00 | 0.09 | 0.09 | 87 | 1016.3 |
| 20260505233525 | 44 | 360 | 1.0 | 3.0 | 0.00 | 0.09 | 0.09 | 87 | 1016.2 |
| 20260505232525 | 44 | 78 | 0.0 | 1.0 | 0.00 | 0.09 | 0.09 | 85 | 1016.2 |
| 20260505231623 | 44 | 10 | 1.0 | 2.0 | 0.00 | 0.09 | 0.09 | 84 | 1016.2 |
| 20260505225623 | 44 | 337 | 0.0 | 3.0 | 0.00 | 0.09 | 0.09 | 85 | 1016.2 |
| 20260505224625 | 44 | 339 | 2.0 | 5.0 | 0.01 | 0.09 | 0.09 | 86 | 1016.0 |
| 20260505224524 | 44 | 315 | 0.0 | 0.0 | 0.01 | 0.09 | 0.09 | 86 | 1016.0 |
| 20260505223523 | 43 | 157 | 0.0 | 0.0 | 0.01 | 0.09 | 0.09 | 87 | 1016.0 |
| 20260505222523 | 43 | 360 | 0.0 | 0.0 | 0.01 | 0.09 | 0.09 | 87 | 1016.1 |
| 20260505221622 | 43 | 180 | 0.0 | 1.0 | 0.01 | 0.09 | 0.09 | 87 | 1016.0 |
| 20260505221524 | 43 | 180 | 0.0 | 2.0 | 0.01 | 0.09 | 0.09 | 87 | 1016.1 |
| 20260505214525 | 44 | 273 | 2.0 | 4.0 | 0.01 | 0.08 | 0.08 | 88 | 1016.0 |
| 20260505212523 | 45 | 90 | 0.0 | 0.0 | 0.01 | 0.08 | 0.08 | 89 | 1016.2 |
| 20260505211525 | 45 | 112 | 0.0 | 1.0 | 0.01 | 0.08 | 0.08 | 88 | 1016.0 |
| 20260505210524 | 45 | 149 | 0.0 | 2.0 | 0.01 | 0.08 | 0.08 | 87 | 1015.9 |
| 20260505204623 | 45 | 156 | 1.0 | 4.0 | 0.00 | 0.07 | 0.07 | 86 | 1015.8 |
| 20260505203624 | 46 | 134 | 0.0 | 2.0 | 0.00 | 0.07 | 0.07 | 84 | 1015.6 |
| 20260505202623 | 47 | 349 | 3.0 | 6.0 | 0.00 | 0.07 | 0.07 | 77 | 1015.7 |
| 20260505202523 | 47 | 249 | 0.0 | 4.0 | 0.00 | 0.07 | 0.07 | 77 | 1015.7 |
| 20260505201523 | 47 | 157 | 0.0 | 1.0 | 0.00 | 0.07 | 0.07 | 76 | 1015.6 |
| 20260505200524 | 47 | 240 | 2.0 | 5.0 | 0.00 | 0.07 | 0.07 | 76 | 1015.6 |
| 20260505195525 | 46 | 184 | 2.0 | 4.0 | 0.00 | 0.07 | 0.07 | 80 | 1015.7 |
| 20260505194622 | 47 | 112 | 0.0 | 0.0 | 0.00 | 0.07 | 0.07 | 78 | 1015.7 |
| 20260505193626 | 48 | 130 | 2.0 | 5.0 | 0.00 | 0.07 | 0.07 | 79 | 1015.6 |
| 20260505192624 | 48 | 2 | 2.0 | 4.0 | 0.00 | 0.07 | 0.07 | 75 | 1015.5 |
| 20260505191524 | 48 | 24 | 3.0 | 6.0 | 0.00 | 0.07 | 0.07 | 75 | 1015.5 |
| 20260505185525 | 46 | 183 | 2.0 | 5.0 | 0.00 | 0.07 | 0.07 | 75 | 1015.5 |
| 20260505185425 | 47 | 223 | 4.0 | 6.0 | 0.00 | 0.07 | 0.07 | 75 | 1015.5 |
| 20260505183523 | 47 | 311 | 3.0 | 5.0 | 0.00 | 0.07 | 0.07 | 78 | 1015.3 |
| 20260505183424 | 47 | 300 | 1.0 | 4.0 | 0.00 | 0.07 | 0.07 | 78 | 1015.4 |
| 20260505181439 | 45 | 270 | 0.0 | 1.0 | 0.01 | 0.07 | 0.07 | 81 | 1015.3 |
| 20260505181322 | 45 | 289 | 0.0 | 2.0 | 0.01 | 0.07 | 0.07 | 80 | 1015.3 |
| 20260505181222 | 45 | 270 | 0.0 | 1.0 | 0.01 | 0.07 | 0.07 | 81 | 1015.3 |
| 20260505180123 | 45 | 258 | 4.0 | 5.0 | 0.01 | 0.07 | 0.07 | 82 | 1015.3 |
| 20260505175124 | 44 | 247 | 1.0 | 2.0 | 0.01 | 0.07 | 0.07 | 82 | 1015.1 |
| 20260505174124 | 43 | 315 | 0.0 | 1.0 | 0.01 | 0.07 | 0.07 | 83 | 1015.0 |
| 20260505173222 | 43 | 239 | 1.0 | 4.0 | 0.01 | 0.07 | 0.07 | 84 | 1014.9 |
| 20260505172223 | 43 | 45 | 0.0 | 1.0 | 0.01 | 0.07 | 0.07 | 84 | 1015.0 |
| 20260505171222 | 42 | 315 | 0.0 | 0.0 | 0.00 | 0.06 | 0.06 | 85 | 1014.8 |
| 20260505170225 | 42 | 90 | 0.0 | 0.0 | 0.00 | 0.06 | 0.06 | 84 | 1014.7 |
| 20260505170122 | 42 | 90 | 0.0 | 1.0 | 0.00 | 0.06 | 0.06 | 84 | 1014.7 |
| 20260505165124 | 42 | 148 | 1.0 | 3.0 | 0.00 | 0.06 | 0.06 | 86 | 1014.6 |
| 20260505162222 | 41 | 175 | 0.0 | 6.0 | 0.01 | 0.06 | 0.06 | 86 | 1014.4 |
| 20260505162122 | 41 | 183 | 1.0 | 6.0 | 0.01 | 0.06 | 0.06 | 87 | 1014.4 |
| 20260505161125 | 41 | 22 | 0.0 | 0.0 | 0.01 | 0.06 | 0.06 | 88 | 1014.3 |
| 20260505152322 | 41 | 67 | 0.0 | 0.0 | 0.01 | 0.06 | 0.05 | 91 | 1013.9 |
| 20260505151324 | 40 | 67 | 0.0 | 0.0 | 0.01 | 0.06 | 0.05 | 90 | 1013.9 |
| 20260505151240 | 40 | 67 | 0.0 | 0.0 | 0.01 | 0.06 | 0.05 | 89 | 1013.9 |
| 20260505150224 | 40 | 1 | 0.0 | 1.0 | 0.01 | 0.06 | 0.05 | 92 | 1013.8 |
| 20260505140424 | 39 | 112 | 0.0 | 0.0 | 0.01 | 0.05 | 0.04 | 94 | 1013.4 |
| 20260505130225 | 39 | 270 | 0.0 | 1.0 | 0.01 | 0.04 | 0.03 | 95 | 1013.0 |
| 20260505121422 | 40 | 45 | 0.0 | 0.0 | 0.02 | 0.03 | 0.02 | 96 | 1013.0 |
| 20260505120424 | 40 | 45 | 0.0 | 0.0 | 0.02 | 0.03 | 0.02 | 94 | 1013.0 |
| 20260505115425 | 40 | 45 | 0.0 | 0.0 | 0.01 | 0.02 | 0.01 | 94 | 1013.0 |
| 20260505112423 | 40 | 360 | 0.0 | 0.0 | 0.00 | 0.01 | 0.00 | 95 | 1012.9 |
| 20260505111326 | 40 | 360 | 0.0 | 0.0 | 0.00 | 0.01 | 0.00 | 93 | 1013.0 |
| 20260505110424 | 40 | 360 | 0.0 | 0.0 | 0.00 | 0.01 | 0.00 | 93 | 1012.8 |
| 20260505094424 | 40 | 360 | 0.0 | 0.0 | 0.00 | 0.01 | 0.00 | 93 | 1013.2 |
| 20260505093424 | 40 | 360 | 0.0 | 0.0 | 0.00 | 0.01 | 0.00 | 93 | 1013.3 |
| 20260505092423 | 40 | 360 | 0.0 | 1.0 | 0.00 | 0.01 | 0.00 | 93 | 1013.5 |
| 20260505092322 | 40 | 360 | 0.0 | 0.0 | 0.00 | 0.01 | 0.00 | 93 | 1013.6 |
| 20260505091421 | 41 | 360 | 0.0 | 0.0 | 0.00 | 0.01 | 0.00 | 94 | 1013.6 |